Date String (YYYY-MM-DD hh:mm:ss) UTC,Instrument flags,Ambient pressure (hPa),Sample flow (lpm),Bypass flow (lpm),Sample temperature (°C),Ambient temperature (°C),ASC tube jacket temperature (°C),LED temperature (°C),Box temperature (°C),Sample RH (%),Span deviation,Mass concentration (μg/m³),Mass concentration (μg/m³),Mass concentration (μg/m³)
DateTimeUTC,F1_M11,P_M11,Q1_M11,Q2_M11,T1_M11,T2_M11,T3_M11,T4_M11,T5_M11,U1_M11,ZSPAN_M11,X2_M11,X0_M11,X1_M11
2022-05-09 04:00:00,,0805.8,5.01,0.00,29.2,28.4,00.0,38.3,31.0,20.4,0000.0,0007.68,0025.95,0003.37
2022-05-09 04:01:00,,0805.7,4.99,0.00,29.2,28.4,00.0,38.3,31.0,20.3,0000.0,0007.62,0026.15,0003.37
2022-05-09 04:02:00,,0805.8,5.00,0.00,29.2,28.5,00.0,38.3,31.0,20.3,0000.0,0007.61,0024.82,0003.39
2022-05-09 04:03:00,,0805.7,5.00,0.00,29.2,28.4,00.0,38.3,31.0,20.4,0000.0,0007.57,0023.94,0003.39
2022-05-09 04:04:00,,0805.7,5.00,0.00,29.2,28.4,00.0,38.3,31.0,20.3,0000.0,0007.72,0025.11,0003.42
2022-05-09 04:05:00,,0805.7,4.99,0.00,29.2,28.4,00.0,38.3,31.0,20.4,0000.0,0007.72,0024.69,0003.44
2022-05-09 04:06:00,,0805.7,5.01,0.00,29.2,28.4,00.0,38.3,31.0,20.4,0000.0,0007.68,0025.18,0003.45
2022-05-09 04:07:00,,0805.8,5.00,0.00,29.2,28.4,00.0,38.3,31.0,20.4,0000.0,0007.66,0025.68,0003.46
2022-05-09 04:08:00,,0805.8,5.00,0.00,29.2,28.4,00.0,38.3,31.0,20.4,0000.0,0007.75,0026.14,0003.49
2022-05-09 04:09:00,,0805.9,4.99,0.00,29.2,28.4,00.0,38.2,31.0,20.5,0000.0,0007.82,0025.81,0003.50
2022-05-09 04:10:00,,0805.9,5.00,0.00,29.2,28.4,00.0,38.2,31.0,20.6,0000.0,0007.75,0025.42,0003.50
2022-05-09 04:11:00,,0805.9,4.99,0.00,29.2,28.4,00.0,38.2,31.0,20.5,0000.0,0007.75,0025.76,0003.50
2022-05-09 04:12:00,,0805.9,5.00,0.00,29.2,28.4,00.0,38.2,30.9,20.4,0000.0,0007.80,0025.73,0003.51
2022-05-09 04:13:00,,0805.9,5.00,0.00,29.2,28.4,00.0,38.2,30.9,20.3,0000.0,0007.87,0026.02,0003.50
2022-05-09 04:14:00,,0805.9,5.00,0.00,29.1,28.4,00.0,38.2,30.9,20.4,0000.0,0008.00,0027.34,0003.51
2022-05-09 04:15:00,,0805.8,5.00,0.00,29.1,28.4,00.0,38.2,30.9,20.4,0000.0,0008.02,0028.15,0003.50
2022-05-09 04:16:00,,0805.7,5.00,0.00,29.1,28.4,00.0,38.2,30.9,20.4,0000.0,0008.02,0028.42,0003.50
2022-05-09 04:17:00,,0805.8,5.01,0.00,29.1,28.4,00.0,38.2,30.9,20.5,0000.0,0008.04,0028.59,0003.51
2022-05-09 04:18:00,,0805.9,5.00,0.00,29.1,28.3,00.0,38.2,30.9,20.5,0000.0,0008.09,0029.59,0003.51
2022-05-09 04:19:00,,0805.9,5.00,0.00,29.1,28.3,00.0,38.2,30.9,20.4,0000.0,0008.02,0029.32,0003.51
2022-05-09 04:20:00,,0805.9,5.00,0.00,29.1,28.3,00.0,38.2,30.9,20.3,0000.0,0007.93,0029.71,0003.52
2022-05-09 04:21:00,,0805.9,5.00,0.00,29.1,28.3,00.0,38.2,30.9,20.3,0000.0,0007.88,0029.46,0003.52
2022-05-09 04:22:00,,0806.0,5.00,0.00,29.1,28.3,00.0,38.2,30.8,20.3,0000.0,0007.89,0029.99,0003.52
2022-05-09 04:23:00,,0805.9,4.99,0.00,29.1,28.3,00.0,38.2,30.8,20.4,0000.0,0007.89,0030.29,0003.50
2022-05-09 04:24:00,,0806.0,5.00,0.00,29.1,28.3,00.0,38.2,30.8,20.4,0000.0,0007.84,0030.71,0003.50
2022-05-09 04:25:00,,0806.1,5.00,0.00,29.1,28.3,00.0,38.2,30.8,20.4,0000.0,0007.84,0030.56,0003.50
2022-05-09 04:26:00,,0806.1,5.00,0.00,29.1,28.3,00.0,38.1,30.8,20.4,0000.0,0007.73,0028.99,0003.50
2022-05-09 04:27:00,,0806.1,5.01,0.00,29.1,28.3,00.0,38.1,30.8,20.4,0000.0,0007.64,0029.48,0003.49
2022-05-09 04:28:00,,0806.1,5.00,0.00,29.0,28.3,00.0,38.1,30.8,20.3,0000.0,0007.62,0029.37,0003.48
2022-05-09 04:29:00,,0806.1,5.00,0.00,29.0,28.3,00.0,38.1,30.8,20.3,0000.0,0007.49,0029.89,0003.47
2022-05-09 04:30:00,,0806.1,5.00,0.00,29.0,28.3,00.0,38.1,30.8,20.3,0000.0,0007.49,0029.36,0003.46
2022-05-09 04:31:00,,0806.1,5.00,0.00,29.0,28.3,00.0,38.1,30.8,20.4,0000.0,0007.48,0028.63,0003.44
2022-05-09 04:32:00,,0806.3,4.99,0.00,29.0,28.3,00.0,38.1,30.8,20.4,0000.0,0007.51,0027.69,0003.42
2022-05-09 04:33:00,,0806.3,5.00,0.00,29.0,28.3,00.0,38.1,30.8,20.5,0000.0,0007.45,0026.81,0003.41
2022-05-09 04:34:00,,0806.3,5.00,0.00,29.0,28.2,00.0,38.1,30.8,20.6,0000.0,0007.33,0025.87,0003.41
2022-05-09 04:35:00,,0806.3,5.01,0.00,29.0,28.3,00.0,38.1,30.8,20.5,0000.0,0007.23,0025.06,0003.40
2022-05-09 04:36:00,,0806.3,5.00,0.00,29.0,28.3,00.0,38.1,30.8,20.4,0000.0,0007.14,0024.43,0003.39
2022-05-09 04:37:00,,0806.4,5.00,0.00,29.0,28.2,00.0,38.1,30.8,20.4,0000.0,0007.20,0024.81,0003.39
2022-05-09 04:38:00,,0806.4,5.00,0.00,29.0,28.2,00.0,38.1,30.8,20.4,0000.0,0007.19,0023.90,0003.38
2022-05-09 04:39:00,,0806.5,5.00,0.00,29.0,28.2,00.0,38.1,30.8,20.4,0000.0,0007.15,0022.53,0003.39
2022-05-09 04:40:00,,0806.6,5.01,0.00,29.0,28.2,00.0,38.1,30.8,20.4,0000.0,0007.19,0020.31,0003.40
2022-05-09 04:41:00,,0806.6,5.00,0.00,29.0,28.2,00.0,38.0,30.8,20.5,0000.0,0007.16,0020.43,0003.40
2022-05-09 04:42:00,,0806.6,5.01,0.00,29.0,28.2,00.0,38.0,30.8,20.5,0000.0,0007.08,0020.60,0003.39
2022-05-09 04:43:00,,0806.6,5.00,0.00,29.0,28.2,00.0,38.0,30.8,20.5,0000.0,0007.05,0020.44,0003.40
2022-05-09 04:44:00,,0806.5,5.00,0.00,29.0,28.2,00.0,38.0,30.8,20.5,0000.0,0006.93,0019.92,0003.39
2022-05-09 04:45:00,,0806.6,4.99,0.00,29.0,28.2,00.0,38.0,30.8,20.5,0000.0,0006.98,0021.02,0003.38
2022-05-09 04:46:00,,0806.6,5.01,0.00,29.0,28.2,00.0,38.0,30.8,20.5,0000.0,0007.03,0021.43,0003.39
2022-05-09 04:47:00,,0806.6,5.01,0.00,29.0,28.2,00.0,38.0,30.7,20.4,0000.0,0006.97,0020.78,0003.39
2022-05-09 04:48:00,,0806.6,5.00,0.00,29.0,28.2,00.0,38.0,30.7,20.5,0000.0,0006.82,0020.15,0003.38
2022-05-09 04:49:00,,0806.6,5.00,0.00,29.0,28.2,00.0,38.0,30.7,20.4,0000.0,0006.79,0019.89,0003.39
2022-05-09 04:50:00,,0806.7,4.99,0.00,29.0,28.2,00.0,38.0,30.7,20.5,0000.0,0006.86,0020.70,0003.38
2022-05-09 04:51:00,,0806.7,5.00,0.00,29.0,28.2,00.0,38.0,30.7,20.5,0000.0,0006.86,0021.70,0003.37
2022-05-09 04:52:00,,0806.7,4.99,0.00,29.0,28.2,00.0,38.0,30.7,20.4,0000.0,0006.88,0022.51,0003.38
2022-05-09 04:53:00,,0806.8,5.00,0.00,28.9,28.2,00.0,38.0,30.7,20.4,0000.0,0006.91,0022.86,0003.39
2022-05-09 04:54:00,,0806.8,5.00,0.00,28.9,28.2,00.0,38.0,30.7,20.5,0000.0,0006.91,0022.79,0003.39
2022-05-09 04:55:00,,0806.9,5.01,0.00,28.9,28.2,00.0,38.0,30.7,20.4,0000.0,0007.05,0023.83,0003.40
2022-05-09 04:56:00,,0807.0,5.01,0.00,28.9,28.2,00.0,38.0,30.7,20.4,0000.0,0006.98,0023.50,0003.40
2022-05-09 04:57:00,,0807.0,5.01,0.00,28.9,28.2,00.0,38.0,30.7,20.5,0000.0,0006.94,0023.38,0003.40
2022-05-09 04:58:00,,0807.0,5.00,0.00,28.9,28.1,00.0,38.0,30.7,20.5,0000.0,0007.01,0023.36,0003.41
2022-05-09 04:59:00,,0807.0,5.00,0.00,28.9,28.2,00.0,38.0,30.7,20.5,0000.0,0007.10,0023.80,0003.42
